Regional Weather Roundup
Issued by NWS

Home | Current Version | Previous Version | Graphics & Text | Print | Product List | Glossary Off
Versions: 1 2 3 4 5 6 7 8 9 10 11 12 13 14 15 16 17 18 19 20 21 22 23 24 25 26 27 28 29 30 31 32 33 34 35 36 37 38 39 40 41 42 43 44 45 46 47 48 49 50

000
ASUS43 KDMX 300303
RWRIA

WEATHER ROUNDUP FOR IOWA
NATIONAL WEATHER SERVICE DES MOINES IA
1000 PM CDT SUN MAY 29 2016

NOTE: "FAIR" INDICATES FEW OR NO CLOUDS BELOW 12,000 FEET WITH NO
SIGNIFICANT WEATHER AND/OR OBSTRUCTIONS TO VISIBILITY.

* - THESE STATIONS ARE NOT NWS STATIONS...THUS NOT UNDER NWS
QUALITY CONTROL.  THEY ALSO DO NOT REPORT WEATHER SUCH
AS PRECIPITATION OR FOG.

IAZ001>003-012>014-020>022-031>034-043>046-300400-
   NORTHWEST IOWA

CITY           SKY/WX    TMP DP  RH WIND       PRES   REMARKS
CARROLL *      CLEAR     72  59  64 CALM      30.02R
CHEROKEE *     CLEAR     63  57  82 CALM      30.03R
DENISON *      CLEAR     70  59  68 CALM      30.01R
LE MARS *      CLEAR     66  59  77 CALM      30.04R
ORANGE CITY *  CLEAR     72  54  53 CALM      30.04R
SHELDON *      CLEAR     64  57  77 CALM      30.03R
SIOUX CITY     CLOUDY    74  55  51 NE7       30.01R
SPENCER        CLEAR     63  56  78 S3        30.03R
STORM LAKE *   CLEAR     70  52  52 CALM      30.05R
$$

IAZ055>058-069>071-079>083-090>094-300400-
   SOUTHWEST IOWA

CITY           SKY/WX    TMP DP  RH WIND       PRES   REMARKS
ATLANTIC *     CLEAR     72  63  73 CALM      30.01S
AUDUBON *      CLEAR     66  61  82 CALM      30.03S
CLARINDA *       N/A     70  68  94 MISG      30.02R
COUNCIL BLFS * CLEAR     77  57  50 E5        30.00S
CRESTON *      CLEAR     72  63  73 SE3       30.04R
HARLAN  *      CLEAR     72  63  73 CALM      30.05R
LAMONI         CLOUDY    75  62  64 S5        30.03R
RED OAK *      CLOUDY    72  66  83 CALM      30.01R
SHENANDOAH *   CLOUDY    77  63  61 SW9       30.01R
$$

IAZ047>049-059>061-072>074-084-300400-
   CENTRAL IOWA

CITY           SKY/WX    TMP DP  RH WIND       PRES   REMARKS
AMES           CLEAR     68  60  75 SW7       30.01R
ANKENY *       CLEAR     66  61  82 CALM      30.01R
BOONE *        CLEAR     72  57  60 SW6       30.01R
CHARITON *     CLEAR     72  64  78 SE3       30.02S
DES MOINES     PTCLDY    76  56  49 S5        30.01R
GRINNELL*      CLEAR     70  57  64 S6        30.03R
KNOXVILLE *    CLEAR     72  59  64 S5        30.01S
MARSHALLTOWN   MOCLDY    71  58  63 SW7       30.00R
NEWTON *       CLEAR     68  61  77 S5        30.01S
PELLA *        CLEAR     70  59  67 S3        30.03S
PERRY *        LGT RAIN  73  57  56 CALM      30.02R
$$

IAZ004>006-015-016-023>025-035-036-300400-
   NORTH CENTRAL IOWA

CITY           SKY/WX    TMP DP  RH WIND       PRES   REMARKS
ALGONA *       CLEAR     66  55  68 W6        30.03R
CLARION *      CLEAR     68  54  60 NW8       30.02R
ESTHERVILLE    CLEAR     63  56  78 W6        30.03R
FORT DODGE *   CLEAR     66  52  59 CALM      30.03R
MASON CITY     CLEAR     63  54  72 W8        30.03R
FOREST CITY *  CLEAR     61  54  77 CALM      30.01R
WEBSTER CITY * CLEAR     68  57  68 CALM      30.01R
IOWA FALLS *     N/A     68  63  83 CALM      30.04R
$$

IAZ007>011-017>019-026>030-037>042-050>054-066-300400-
   NORTHEAST IOWA

CITY           SKY/WX    TMP DP  RH WIND       PRES   REMARKS
CEDAR RAPIDS   PTCLDY    69  60  73 SW7       30.00R
CHARLES CITY * CLEAR     70  57  64 W7        30.01R
CLINTON *      PTCLDY    69  60  73 VRB3      30.02R
DECORAH *      CLEAR     70  59  68 CALM      29.99R
DUBUQUE        MOCLDY    66  57  72 CALM      30.01R
MONTICELLO *   PTCLDY    66  63  88 S6        30.01R
OELWEIN *      MOCLDY    70  61  73 SW7       30.02R
WATERLOO       CLOUDY    70  62  76 CALM      30.00R
$$

IAZ064-065-067-068-078-300400-
   EAST CENTRAL IOWA

CITY           SKY/WX    TMP DP  RH WIND       PRES   REMARKS
DAVENPORT      PTCLDY    70  58  65 SW6       30.02R
IOWA CITY      CLEAR     70  58  65 CALM      30.02R
MT. PLEASANT * CLEAR     72  64  78 S3        30.03R
MUSCATINE *    PTCLDY    68  61  77 S5        30.02R
QUAD CITIES    CLEAR     71  57  61 SW3       30.01R
$$

IAZ062-063-075>077-085>089-095>099-300400-
   SOUTHEAST IOWA

CITY           SKY/WX    TMP DP  RH WIND       PRES   REMARKS
BURLINGTON     CLEAR     70  62  76 CALM      30.03R
FAIRFIELD *      N/A    N/A N/A N/A MISG        N/A
FORT MADISON * CLEAR     70  61  73 S3        30.05R
KEOKUK *       CLEAR     68  64  88 CALM      30.03R
OSKALOOSA *      N/A     72  59  64 S5        30.03R
OTTUMWA        CLEAR     69  60  73 CALM      30.03R
WASHINGTON *   CLEAR     70 -38   1 S5        30.04R
$$

ABBREVIATIONS USED IN REMARKS
   TC - TEMPERATURES IN CELSIUS
  WCI - WIND CHILL INDEX
   HX - HEAT INDEX
  VSB - VISIBILITY
$$





USA.gov is the U.S. government's official web portal to all federal, state and local government web resources and services.